^^
Your Local Weather - Clay, NY Station Historical Data
Daily Summary for August 19, 2017 Units:  English    Metric   Both
« Previous Day
Next Day »
Daily Weekly Monthly Yearly Custom
  High: Low: Average:
Temperature: 79.6 °F 65.8 °F 71.8 °F
Dew Point: 64.5 °F 58.2 °F 61.5 °F
Humidity: 86% 50% 71%
Wind Speed: 4.0mph 0.0mph 1.3mph
Wind Gust: 10.0mph - -
Wind- - WSW
Pressure: 29.85 in 29.72 in -
Precipitation: 0.00 in    
Historical Graphs
 
 
Tabular Data for August 19, 2017
Time Temperature Dew Point Pressure Wind Wind Speed Wind Gust Humidity Rainfall Rate (Hourly) solar
00:04 69.8 °F 63.0 °F 29.75 in Calm     79% 0.00 in 0 W/m2
00:10 69.6 °F 63.2 °F 29.75 in Calm     80% 0.00 in 0 W/m2
00:16 69.2 °F 62.8 °F 29.74 in Calm     80% 0.00 in 0 W/m2
00:22 68.9 °F 62.5 °F 29.74 in Calm     80% 0.00 in 0 W/m2
00:28 68.3 °F 62.9 °F 29.75 in Calm     83% 0.00 in 0 W/m2
00:34 67.7 °F 62.7 °F 29.74 in Calm     84% 0.00 in 0 W/m2
00:40 67.7 °F 62.3 °F 29.74 in Calm   2.0 mph 83% 0.00 in 0 W/m2
00:46 68.1 °F 62.4 °F 29.74 in Calm   2.0 mph 82% 0.00 in 0 W/m2
00:52 68.5 °F 62.4 °F 29.74 in Calm     81% 0.00 in 0 W/m2
00:58 68.7 °F 62.3 °F 29.74 in Calm     80% 0.00 in 0 W/m2
01:04 68.8 °F 62.4 °F 29.74 in Calm   2.0 mph 80% 0.00 in 0 W/m2
01:10 69.4 °F 62.6 °F 29.74 in WSW 1.0 mph 1.0 mph 79% 0.00 in 0 W/m2
01:16 69.7 °F 62.5 °F 29.74 in WSW 2.0 mph 3.0 mph 78% 0.00 in 0 W/m2
01:22 69.8 °F 62.6 °F 29.73 in WSW 1.0 mph 1.0 mph 78% 0.00 in 0 W/m2
01:28 69.6 °F 62.4 °F 29.73 in Calm   1.0 mph 78% 0.00 in 0 W/m2
01:34 69.5 °F 62.3 °F 29.73 in Calm   1.0 mph 78% 0.00 in 0 W/m2
01:40 69.2 °F 62.4 °F 29.73 in Calm   1.0 mph 79% 0.00 in 0 W/m2
01:46 69.0 °F 62.2 °F 29.73 in Calm   1.0 mph 79% 0.00 in 0 W/m2
01:52 68.8 °F 62.4 °F 29.73 in Calm     80% 0.00 in 0 W/m2
01:58 68.7 °F 62.3 °F 29.73 in Calm   2.0 mph 80% 0.00 in 0 W/m2
02:04 68.6 °F 62.2 °F 29.73 in WSW 1.0 mph 2.0 mph 80% 0.00 in 0 W/m2
02:10 68.5 °F 62.1 °F 29.73 in WSW 1.0 mph 1.0 mph 80% 0.00 in 0 W/m2
02:16 68.3 °F 62.2 °F 29.73 in WSW 1.0 mph 4.0 mph 81% 0.00 in 0 W/m2
02:22 68.1 °F 62.0 °F 29.72 in Calm   1.0 mph 81% 0.00 in 0 W/m2
02:28 67.9 °F 61.9 °F 29.72 in Calm   1.0 mph 81% 0.00 in 0 W/m2
02:34 67.7 °F 62.0 °F 29.72 in Calm     82% 0.00 in 0 W/m2
02:40 67.4 °F 61.7 °F 29.72 in Calm     82% 0.00 in 0 W/m2
02:48 66.5 °F 61.8 °F 29.72 in Calm     85% 0.00 in 0 W/m2
02:54 66.1 °F 61.5 °F 29.72 in Calm     85% 0.00 in 0 W/m2
03:00 65.9 °F 61.6 °F 29.72 in Calm     86% 0.00 in 0 W/m2
03:06 65.8 °F 61.5 °F 29.72 in Calm   2.0 mph 86% 0.00 in 0 W/m2
03:12 65.8 °F 61.5 °F 29.72 in Calm     86% 0.00 in 0 W/m2
03:20 66.3 °F 62.0 °F 29.72 in South 1.0 mph 1.0 mph 86% 0.00 in 0 W/m2
03:26 66.9 °F 62.2 °F 29.72 in SW 1.0 mph 2.0 mph 85% 0.00 in 0 W/m2
03:32 67.4 °F 62.4 °F 29.72 in SSW 1.0 mph 2.0 mph 84% 0.00 in 0 W/m2
03:38 67.7 °F 62.3 °F 29.72 in SSW 1.0 mph 2.0 mph 83% 0.00 in 0 W/m2
03:44 67.9 °F 62.5 °F 29.72 in Calm   2.0 mph 83% 0.00 in 0 W/m2
03:50 68.0 °F 62.3 °F 29.72 in Calm     82% 0.00 in 0 W/m2
03:56 68.0 °F 62.6 °F 29.72 in SSW 1.0 mph 2.0 mph 83% 0.00 in 0 W/m2
04:04 68.0 °F 62.3 °F 29.72 in SSW 1.0 mph 2.0 mph 82% 0.00 in 0 W/m2
04:10 68.0 °F 62.6 °F 29.72 in Calm     83% 0.00 in 0 W/m2
04:16 67.9 °F 62.5 °F 29.72 in Calm   2.0 mph 83% 0.00 in 0 W/m2
04:22 67.8 °F 62.4 °F 29.72 in Calm   1.0 mph 83% 0.00 in 0 W/m2
04:28 67.8 °F 62.4 °F 29.72 in Calm   2.0 mph 83% 0.00 in 0 W/m2
04:34 67.9 °F 62.5 °F 29.72 in SSW 1.0 mph 2.0 mph 83% 0.00 in 0 W/m2
04:40 68.1 °F 62.7 °F 29.72 in SW 2.0 mph 2.0 mph 83% 0.00 in 0 W/m2
04:46 68.2 °F 62.5 °F 29.73 in SSW 2.0 mph 4.0 mph 82% 0.00 in 0 W/m2
04:52 68.3 °F 62.6 °F 29.73 in WSW 2.0 mph 2.0 mph 82% 0.00 in 0 W/m2
04:58 68.5 °F 62.8 °F 29.73 in SW 1.0 mph 3.0 mph 82% 0.00 in 0 W/m2
05:04 68.7 °F 63.0 °F 29.73 in SW 1.0 mph 4.0 mph 82% 0.00 in 0 W/m2
05:10 68.8 °F 62.7 °F 29.73 in SW 2.0 mph 2.0 mph 81% 0.00 in 0 W/m2
05:16 69.0 °F 62.9 °F 29.73 in WSW 2.0 mph 3.0 mph 81% 0.00 in 0 W/m2
05:22 69.0 °F 62.9 °F 29.73 in WSW 1.0 mph 2.0 mph 81% 0.00 in 0 W/m2
05:28 69.0 °F 62.6 °F 29.73 in WSW 1.0 mph 3.0 mph 80% 0.00 in 0 W/m2
05:34 69.0 °F 62.6 °F 29.73 in WSW 1.0 mph 1.0 mph 80% 0.00 in 0 W/m2
05:40 69.0 °F 62.6 °F 29.73 in WSW 1.0 mph 1.0 mph 80% 0.00 in 0 W/m2
05:46 68.9 °F 62.5 °F 29.73 in WSW 1.0 mph 2.0 mph 80% 0.00 in 0 W/m2
05:52 68.9 °F 62.5 °F 29.73 in WSW 1.0 mph 1.0 mph 80% 0.00 in 0 W/m2
05:58 68.8 °F 62.7 °F 29.73 in WSW 1.0 mph 1.0 mph 81% 0.00 in 0 W/m2
06:04 68.7 °F 62.6 °F 29.73 in Calm     81% 0.00 in 0 W/m2
06:10 68.7 °F 62.6 °F 29.74 in WSW 1.0 mph 1.0 mph 81% 0.00 in 0 W/m2
06:16 68.7 °F 62.6 °F 29.74 in SSW 1.0 mph 1.0 mph 81% 0.00 in 0 W/m2
06:22 68.8 °F 62.4 °F 29.74 in WSW 1.0 mph 2.0 mph 80% 0.00 in 5 W/m2
06:28 68.8 °F 62.4 °F 29.74 in WSW 2.0 mph 3.0 mph 80% 0.00 in 7 W/m2
06:34 68.8 °F 62.4 °F 29.75 in WSW 1.0 mph 2.0 mph 80% 0.00 in 9 W/m2
06:40 68.9 °F 62.5 °F 29.75 in SW 1.0 mph 2.0 mph 80% 0.00 in 12 W/m2
06:46 68.9 °F 62.5 °F 29.75 in SW 1.0 mph 3.0 mph 80% 0.00 in 14 W/m2
06:52 69.0 °F 62.6 °F 29.75 in SW 1.0 mph 3.0 mph 80% 0.00 in 18 W/m2
06:58 69.1 °F 62.7 °F 29.75 in WSW 2.0 mph 3.0 mph 80% 0.00 in 26 W/m2
07:04 69.1 °F 62.7 °F 29.75 in WSW 1.0 mph 2.0 mph 80% 0.00 in 35 W/m2
07:10 69.1 °F 62.7 °F 29.75 in SW 1.0 mph 1.0 mph 80% 0.00 in 35 W/m2
07:16 69.1 °F 62.7 °F 29.75 in SW 1.0 mph 1.0 mph 80% 0.00 in 39 W/m2
07:22 69.2 °F 63.1 °F 29.76 in Calm     81% 0.00 in 39 W/m2
07:28 69.3 °F 62.9 °F 29.76 in SW 1.0 mph 4.0 mph 80% 0.00 in 44 W/m2
07:34 69.4 °F 63.0 °F 29.76 in WSW 2.0 mph 3.0 mph 80% 0.00 in 51 W/m2
07:40 69.4 °F 63.0 °F 29.76 in SSW 2.0 mph 2.0 mph 80% 0.00 in 42 W/m2
07:46 69.4 °F 63.0 °F 29.76 in West 2.0 mph 2.0 mph 80% 0.00 in 28 W/m2
07:52 69.4 °F 63.0 °F 29.77 in WSW 2.0 mph 2.0 mph 80% 0.00 in 60 W/m2
07:58 69.5 °F 63.1 °F 29.77 in WSW 3.0 mph 5.0 mph 80% 0.00 in 76 W/m2
08:04 69.6 °F 63.2 °F 29.77 in West 3.0 mph 6.0 mph 80% 0.00 in 107 W/m2
08:10 69.8 °F 63.3 °F 29.77 in WSW 3.0 mph 4.0 mph 80% 0.00 in 206 W/m2
08:16 70.6 °F 64.1 °F 29.77 in NW 3.0 mph 4.0 mph 80% 0.00 in 163 W/m2
08:22 70.8 °F 64.0 °F 29.77 in WSW 2.0 mph 3.0 mph 79% 0.00 in 51 W/m2
08:28 70.4 °F 63.6 °F 29.77 in SW 2.0 mph 6.0 mph 79% 0.00 in 65 W/m2
08:34 70.1 °F 63.3 °F 29.77 in SW 3.0 mph 6.0 mph 79% 0.00 in 67 W/m2
08:40 69.9 °F 63.4 °F 29.77 in WSW 2.0 mph 2.0 mph 80% 0.00 in 63 W/m2
08:46 69.8 °F 63.3 °F 29.77 in WSW 1.0 mph 4.0 mph 80% 0.00 in 72 W/m2
08:52 69.7 °F 63.3 °F 29.77 in WNW 2.0 mph 2.0 mph 80% 0.00 in 86 W/m2
08:58 69.7 °F 63.3 °F 29.77 in WSW 3.0 mph 4.0 mph 80% 0.00 in 102 W/m2
09:04 69.7 °F 63.3 °F 29.77 in SW 3.0 mph 3.0 mph 80% 0.00 in 111 W/m2
09:10 69.8 °F 63.3 °F 29.78 in WSW 2.0 mph 2.0 mph 80% 0.00 in 105 W/m2
09:16 69.8 °F 63.0 °F 29.78 in SW 2.0 mph 4.0 mph 79% 0.00 in 130 W/m2
09:22 70.0 °F 63.5 °F 29.78 in West 1.0 mph 3.0 mph 80% 0.00 in 162 W/m2
09:28 70.3 °F 63.1 °F 29.78 in SW 1.0 mph 3.0 mph 78% 0.00 in 200 W/m2
09:34 70.5 °F 63.7 °F 29.78 in WSW 2.0 mph 4.0 mph 79% 0.00 in 246 W/m2
09:40 70.8 °F 63.2 °F 29.78 in SW 3.0 mph 3.0 mph 77% 0.00 in 260 W/m2
09:46 71.3 °F 63.7 °F 29.78 in West 2.0 mph 4.0 mph 77% 0.00 in 271 W/m2
09:52 71.6 °F 63.6 °F 29.78 in NW 1.0 mph 2.0 mph 76% 0.00 in 304 W/m2
09:58 72.0 °F 64.0 °F 29.78 in SW 2.0 mph 4.0 mph 76% 0.00 in 348 W/m2
10:04 72.2 °F 63.1 °F 29.78 in SSW 3.0 mph 5.0 mph 73% 0.00 in 257 W/m2
10:10 72.1 °F 63.4 °F 29.79 in SSW 2.0 mph 2.0 mph 74% 0.00 in 304 W/m2
10:16 72.3 °F 63.2 °F 29.80 in SSW 2.0 mph 2.0 mph 73% 0.00 in 374 W/m2
10:22 72.7 °F 63.5 °F 29.80 in SW 2.0 mph 4.0 mph 73% 0.00 in 301 W/m2
10:28 72.9 °F 62.9 °F 29.79 in SSW 1.0 mph 4.0 mph 71% 0.00 in 299 W/m2
10:34 73.0 °F 63.0 °F 29.80 in WSW 2.0 mph 4.0 mph 71% 0.00 in 302 W/m2
10:40 72.8 °F 62.4 °F 29.80 in SSW 2.0 mph 3.0 mph 70% 0.00 in 253 W/m2
10:46 72.7 °F 63.1 °F 29.80 in WSW 2.0 mph 3.0 mph 72% 0.00 in 211 W/m2
10:52 72.7 °F 62.3 °F 29.80 in SW 2.0 mph 5.0 mph 70% 0.00 in 202 W/m2
10:58 72.6 °F 62.7 °F 29.80 in WNW 2.0 mph 5.0 mph 71% 0.00 in 246 W/m2
11:04 72.9 °F 63.3 °F 29.81 in WSW 1.0 mph 2.0 mph 72% 0.00 in 320 W/m2
11:10 73.3 °F 62.9 °F 29.81 in SW 1.0 mph 1.0 mph 70% 0.00 in 323 W/m2
11:16 73.2 °F 61.6 °F 29.81 in WSW 2.0 mph 3.0 mph 67% 0.00 in 332 W/m2
11:22 74.7 °F 62.6 °F 29.80 in WNW 3.0 mph 5.0 mph 66% 0.00 in 954 W/m2
11:28 75.4 °F 63.7 °F 29.80 in West 2.0 mph 5.0 mph 67% 0.00 in 341 W/m2
11:34 74.6 °F 62.1 °F 29.80 in SSE 2.0 mph 3.0 mph 65% 0.00 in 279 W/m2
11:40 74.2 °F 61.7 °F 29.80 in NW 2.0 mph 9.0 mph 65% 0.00 in 315 W/m2
11:46 74.4 °F 62.3 °F 29.80 in WSW 2.0 mph 9.0 mph 66% 0.00 in 369 W/m2
11:52 76.0 °F 63.4 °F 29.80 in SW 3.0 mph 3.0 mph 65% 0.00 in 1042 W/m2
11:58 76.5 °F 62.5 °F 29.80 in West 2.0 mph 3.0 mph 62% 0.00 in 949 W/m2
12:04 76.2 °F 63.1 °F 29.80 in West 2.0 mph 5.0 mph 64% 0.00 in 1035 W/m2
12:10 75.6 °F 61.2 °F 29.80 in WNW 3.0 mph 5.0 mph 61% 0.00 in 914 W/m2
12:16 75.4 °F 59.6 °F 29.80 in SW 3.0 mph 5.0 mph 58% 0.00 in 907 W/m2
12:22 76.9 °F 63.3 °F 29.80 in West 3.0 mph 4.0 mph 63% 0.00 in 868 W/m2
12:28 76.9 °F 61.5 °F 29.80 in NNW 3.0 mph 10.0 mph 59% 0.00 in 868 W/m2
12:34 76.9 °F 62.0 °F 29.80 in WNW 3.0 mph 4.0 mph 60% 0.00 in 933 W/m2
12:40 77.2 °F 63.6 °F 29.80 in West 4.0 mph 4.0 mph 63% 0.00 in 881 W/m2
12:46 77.3 °F 59.9 °F 29.80 in WSW 3.0 mph 8.0 mph 55% 0.00 in 1042 W/m2
12:52 77.7 °F 64.5 °F 29.80 in WNW 3.0 mph 4.0 mph 64% 0.00 in 905 W/m2
12:58 77.4 °F 61.5 °F 29.80 in SSW 3.0 mph 5.0 mph 58% 0.00 in 468 W/m2
13:04 76.5 °F 61.6 °F 29.79 in NW 3.0 mph 3.0 mph 60% 0.00 in 926 W/m2
13:10 77.2 °F 60.3 °F 29.79 in SW 2.0 mph 2.0 mph 56% 0.00 in 925 W/m2
13:16 78.1 °F 60.1 °F 29.80 in ENE 2.0 mph 4.0 mph 54% 0.00 in 930 W/m2
13:22 77.5 °F 59.0 °F 29.79 in NNW 2.0 mph 2.0 mph 53% 0.00 in 508 W/m2
13:28 77.0 °F 60.6 °F 29.80 in West 2.0 mph 3.0 mph 57% 0.00 in 1048 W/m2
13:34 77.6 °F 62.1 °F 29.80 in West 1.0 mph 6.0 mph 59% 0.00 in 937 W/m2
13:40 77.0 °F 62.0 °F 29.80 in NW 2.0 mph 3.0 mph 60% 0.00 in 274 W/m2
13:46 75.9 °F 61.0 °F 29.80 in NW 2.0 mph 3.0 mph 60% 0.00 in 323 W/m2
13:52 75.7 °F 60.8 °F 29.80 in WNW 1.0 mph 3.0 mph 60% 0.00 in 401 W/m2
13:58 76.9 °F 62.0 °F 29.80 in West 2.0 mph 3.0 mph 60% 0.00 in 867 W/m2
14:04 77.7 °F 62.2 °F 29.79 in WSW 2.0 mph 3.0 mph 59% 0.00 in 849 W/m2
14:10 77.8 °F 61.3 °F 29.80 in NW 3.0 mph 3.0 mph 57% 0.00 in 868 W/m2
14:16 77.3 °F 59.4 °F 29.80 in West 4.0 mph 10.0 mph 54% 0.00 in 886 W/m2
14:22 77.6 °F 61.7 °F 29.80 in West 4.0 mph 4.0 mph 58% 0.00 in 1016 W/m2
14:28 77.0 °F 58.6 °F 29.80 in West 3.0 mph 5.0 mph 53% 0.00 in 290 W/m2
14:34 75.8 °F 60.0 °F 29.80 in WNW 3.0 mph 4.0 mph 58% 0.00 in 267 W/m2
14:40 76.2 °F 60.8 °F 29.80 in West 2.0 mph 2.0 mph 59% 0.00 in 297 W/m2
14:46 76.5 °F 61.1 °F 29.79 in NW 1.0 mph 2.0 mph 59% 0.00 in 919 W/m2
14:52 77.7 °F 62.2 °F 29.78 in NNW 1.0 mph 4.0 mph 59% 0.00 in 798 W/m2
14:58 77.8 °F 59.8 °F 29.78 in NNW 2.0 mph 4.0 mph 54% 0.00 in 795 W/m2
15:04 78.3 °F 59.2 °F 29.78 in NW 2.0 mph 3.0 mph 52% 0.00 in 733 W/m2
15:10 78.3 °F 60.8 °F 29.78 in WSW 2.0 mph 2.0 mph 55% 0.00 in 791 W/m2
15:16 78.2 °F 59.7 °F 29.78 in SW 2.0 mph 6.0 mph 53% 0.00 in 752 W/m2
15:22 77.5 °F 58.5 °F 29.78 in SSE 3.0 mph 7.0 mph 52% 0.00 in 770 W/m2
15:28 78.9 °F 59.2 °F 29.78 in NW 2.0 mph 7.0 mph 51% 0.00 in 789 W/m2
15:34 78.7 °F 59.6 °F 29.78 in WSW 2.0 mph 2.0 mph 52% 0.00 in 833 W/m2
15:40 77.8 °F 58.8 °F 29.78 in SSW 3.0 mph 3.0 mph 52% 0.00 in 833 W/m2
15:46 77.9 °F 61.4 °F 29.78 in SW 3.0 mph 4.0 mph 57% 0.00 in 752 W/m2
15:52 78.6 °F 60.6 °F 29.78 in SE 2.0 mph 4.0 mph 54% 0.00 in 693 W/m2
15:58 79.1 °F 62.1 °F 29.77 in SW 2.0 mph 4.0 mph 56% 0.00 in 670 W/m2
16:04 79.0 °F 60.9 °F 29.77 in WNW 1.0 mph 3.0 mph 54% 0.00 in 647 W/m2
16:10 79.2 °F 60.6 °F 29.77 in SSW 1.0 mph 5.0 mph 53% 0.00 in 635 W/m2
16:16 79.0 °F 59.3 °F 29.77 in SSW 3.0 mph 5.0 mph 51% 0.00 in 621 W/m2
16:22 79.1 °F 61.5 °F 29.77 in West 2.0 mph 3.0 mph 55% 0.00 in 594 W/m2
16:28 79.1 °F 59.4 °F 29.77 in WSW 2.0 mph 4.0 mph 51% 0.00 in 594 W/m2
16:34 79.6 °F 61.5 °F 29.77 in WSW 2.0 mph 2.0 mph 54% 0.00 in 568 W/m2
16:40 79.1 °F 58.9 °F 29.77 in East 1.0 mph 1.0 mph 50% 0.00 in 568 W/m2
16:46 78.9 °F 61.4 °F 29.77 in WNW 2.0 mph 2.0 mph 55% 0.00 in 489 W/m2
16:52 78.1 °F 59.6 °F 29.76 in West 1.0 mph 6.0 mph 53% 0.00 in 246 W/m2
16:58 78.2 °F 59.1 °F 29.76 in North 1.0 mph 6.0 mph 52% 0.00 in 452 W/m2
17:04 77.8 °F 58.8 °F 29.76 in West 2.0 mph 3.0 mph 52% 0.00 in 123 W/m2
17:10 77.2 °F 58.2 °F 29.76 in WSW 3.0 mph 3.0 mph 52% 0.00 in 213 W/m2
17:16 77.1 °F 59.2 °F 29.76 in WSW 3.0 mph 4.0 mph 54% 0.00 in 185 W/m2
17:22 77.2 °F 59.8 °F 29.76 in SW 2.0 mph 3.0 mph 55% 0.00 in 174 W/m2
17:28 77.2 °F 59.3 °F 29.76 in SSW 2.0 mph 3.0 mph 54% 0.00 in 174 W/m2
17:34 77.5 °F 60.1 °F 29.75 in WSW 2.0 mph 4.0 mph 55% 0.00 in 97 W/m2
17:40 77.6 °F 59.6 °F 29.75 in SW 2.0 mph 4.0 mph 54% 0.00 in 72 W/m2
17:46 77.7 °F 59.7 °F 29.75 in WSW 2.0 mph 4.0 mph 54% 0.00 in 84 W/m2
17:52 77.6 °F 59.1 °F 29.75 in WSW 3.0 mph 7.0 mph 53% 0.00 in 62 W/m2
17:58 77.5 °F 60.1 °F 29.75 in NW 2.0 mph 7.0 mph 55% 0.00 in 111 W/m2
18:06 77.3 °F 60.4 °F 29.74 in WSW 1.0 mph 5.0 mph 56% 0.00 in 58 W/m2
18:12 77.1 °F 59.2 °F 29.74 in WSW 1.0 mph 2.0 mph 54% 0.00 in 58 W/m2
18:18 77.0 °F 60.1 °F 29.74 in WSW 1.0 mph 5.0 mph 56% 0.00 in 51 W/m2
18:24 76.9 °F 60.0 °F 29.74 in WSW 2.0 mph 2.0 mph 56% 0.00 in 56 W/m2
18:30 76.7 °F 60.8 °F 29.75 in WSW 1.0 mph 1.0 mph 58% 0.00 in 54 W/m2
18:36 76.5 °F 60.6 °F 29.75 in SW 1.0 mph 3.0 mph 58% 0.00 in 74 W/m2
18:42 76.6 °F 60.7 °F 29.75 in WSW 1.0 mph 5.0 mph 58% 0.00 in 76 W/m2
18:48 76.6 °F 60.2 °F 29.75 in WSW 2.0 mph 5.0 mph 57% 0.00 in 53 W/m2
18:56 76.1 °F 60.2 °F 29.75 in WSW 2.0 mph 3.0 mph 58% 0.00 in 30 W/m2
19:02 75.6 °F 60.3 °F 29.75 in WSW 2.0 mph 3.0 mph 59% 0.00 in 21 W/m2
19:08 75.3 °F 60.5 °F 29.75 in WSW 2.0 mph 3.0 mph 60% 0.00 in 21 W/m2
19:14 74.9 °F 60.5 °F 29.75 in SW 1.0 mph 5.0 mph 61% 0.00 in 18 W/m2
19:20 74.7 °F 60.8 °F 29.76 in SW 1.0 mph 1.0 mph 62% 0.00 in 23 W/m2
19:26 74.4 °F 61.0 °F 29.77 in Calm   1.0 mph 63% 0.00 in 35 W/m2
19:32 74.1 °F 61.6 °F 29.77 in NW 1.0 mph 5.0 mph 65% 0.00 in 16 W/m2
19:38 73.5 °F 61.4 °F 29.78 in NNW 2.0 mph 5.0 mph 66% 0.00 in 12 W/m2
19:44 72.7 °F 60.7 °F 29.78 in NNE 2.0 mph 6.0 mph 66% 0.00 in 11 W/m2
19:50 71.9 °F 59.9 °F 29.78 in NW 1.0 mph 1.0 mph 66% 0.00 in 12 W/m2
19:56 71.4 °F 60.3 °F 29.78 in NNW 1.0 mph 2.0 mph 68% 0.00 in 7 W/m2
20:02 70.9 °F 59.8 °F 29.78 in NNW 1.0 mph 1.0 mph 68% 0.00 in 0 W/m2
20:08 70.6 °F 59.9 °F 29.78 in NNW 1.0 mph 2.0 mph 69% 0.00 in 0 W/m2
20:14 70.2 °F 60.0 °F 29.79 in Calm     70% 0.00 in 0 W/m2
20:20 69.9 °F 60.1 °F 29.79 in Calm     71% 0.00 in 0 W/m2
20:26 69.7 °F 59.9 °F 29.80 in Calm     71% 0.00 in 0 W/m2
20:32 69.6 °F 60.2 °F 29.80 in Calm   1.0 mph 72% 0.00 in 0 W/m2
20:38 69.6 °F 60.2 °F 29.80 in Calm   1.0 mph 72% 0.00 in 0 W/m2
20:44 69.5 °F 60.1 °F 29.80 in Calm   2.0 mph 72% 0.00 in 0 W/m2
20:50 69.4 °F 60.4 °F 29.80 in Calm     73% 0.00 in 0 W/m2
20:56 69.2 °F 60.2 °F 29.80 in Calm     73% 0.00 in 0 W/m2
21:02 69.1 °F 60.1 °F 29.81 in Calm     73% 0.00 in 0 W/m2
21:08 68.9 °F 60.3 °F 29.81 in Calm     74% 0.00 in 0 W/m2
21:14 68.8 °F 60.2 °F 29.81 in Calm     74% 0.00 in 0 W/m2
21:20 68.6 °F 60.4 °F 29.81 in Calm     75% 0.00 in 0 W/m2
21:26 68.4 °F 60.5 °F 29.82 in Calm     76% 0.00 in 0 W/m2
21:32 68.3 °F 60.4 °F 29.82 in Calm     76% 0.00 in 0 W/m2
21:38 68.1 °F 60.2 °F 29.82 in Calm     76% 0.00 in 0 W/m2
21:44 67.8 °F 60.3 °F 29.82 in Calm   1.0 mph 77% 0.00 in 0 W/m2
21:52 67.8 °F 60.3 °F 29.83 in Calm     77% 0.00 in 0 W/m2
21:58 67.8 °F 60.3 °F 29.82 in Calm     77% 0.00 in 0 W/m2
22:04 67.9 °F 60.4 °F 29.83 in Calm     77% 0.00 in 0 W/m2
22:10 67.9 °F 60.1 °F 29.83 in Calm     76% 0.00 in 0 W/m2
22:16 67.8 °F 60.0 °F 29.83 in Calm   2.0 mph 76% 0.00 in 0 W/m2
22:22 67.8 °F 60.0 °F 29.83 in Calm     76% 0.00 in 0 W/m2
22:28 67.7 °F 59.9 °F 29.83 in Calm     76% 0.00 in 0 W/m2
22:34 67.6 °F 59.8 °F 29.83 in Calm   3.0 mph 76% 0.00 in 0 W/m2
22:40 67.6 °F 59.8 °F 29.83 in Calm     76% 0.00 in 0 W/m2
22:46 67.5 °F 59.7 °F 29.84 in Calm   1.0 mph 76% 0.00 in 0 W/m2
22:52 67.4 °F 59.9 °F 29.84 in Calm     77% 0.00 in 0 W/m2
22:58 67.5 °F 60.0 °F 29.84 in Calm   2.0 mph 77% 0.00 in 0 W/m2
23:04 67.5 °F 60.0 °F 29.85 in Calm     77% 0.00 in 0 W/m2
23:10 67.4 °F 59.9 °F 29.85 in Calm     77% 0.00 in 0 W/m2
23:18 67.2 °F 60.1 °F 29.85 in Calm     78% 0.00 in 0 W/m2
23:20 67.1 °F 60.0 °F 29.85 in Calm     78% 0.00 in 0 W/m2
23:26 66.9 °F 60.2 °F 29.85 in Calm     79% 0.00 in 0 W/m2
23:28 66.9 °F 60.2 °F 29.85 in Calm     79% 0.00 in 0 W/m2
23:34 66.9 °F 60.2 °F 29.85 in Calm     79% 0.00 in 0 W/m2
23:40 67.0 °F 60.3 °F 29.85 in Calm     79% 0.00 in 0 W/m2
23:46 67.0 °F 60.3 °F 29.85 in Calm   1.0 mph 79% 0.00 in 0 W/m2
23:52 67.0 °F 60.3 °F 29.85 in Calm   2.0 mph 79% 0.00 in 0 W/m2
23:58 67.1 °F 60.4 °F 29.85 in Calm   2.0 mph 79% 0.00 in 0 W/m2
Country Meadow, Clay, NY, USA
Compliments of Weather Underground - 2 mb